Content
SEND FEEDBACK

Daily
Averages
Monthly
Summary
Germany

MUNICH, GERMANY


Home > Europe > Germany
Elevation: 1735 feet     Latitude: 48 08N     Longitude: 011 42E

WEATHER
 
SELECT A DAY
Number of Records: 291,170;   Date Range: 7/1/96 - 7/10/14
 
SHARE

PRINT THIS DATA

[ ← Previous Day ]
WEATHER ALMANAC - APRIL 20, 2013
[ Next Day → ]
[ °C ]   °F
Weather ElementAverageHighLow
Temperature45.1 °F48.2 °F (6:20 pm)42.8 °F (1:20 am)
Dewpoint42.5 °F44.6 °F (12:50 am)41 °F (2:20 am)
Humidity90.8 %100 % (12:50 am)81 % (1:50 pm)
Barometer30.15 in30.21 in (12:50 am)30.09 in (6:20 pm)
Wind Speed13.5 mph19.6 mph (1:20 pm)
Weather ElementAverage
Visibility5.8 mi
Wind DirectionE (84.5 °)

Weather ElementTotal
Precipitation---
Heating Degree Days19.5 (Base 65)
Averaged from 47 records on April 20, 2013
WEATHER CONDITIONS BREAKOUT
WIND DIRECTION BREAKOUT
WEATHER BY HOUR - APRIL 20, 2013
[ °C ]   °F
Local TimeTemperatureDewpointHumidityBarometerVisibilityWind DirectionWind SpeedGust SpeedPrecipitationEventsConditions
12:50 AM44.6 °F44.6 °F100 %30.21 in2.2 miNNW (330°)8.1 mphRainRain
1:20 AM42.8 °F42.8 °F100 %30.21 in5.0 miNNW (340°)9.2 mphRainLight Rain
1:50 AM42.8 °F42.8 °F100 %30.21 in5.6 miNorth (360°)9.2 mphRainLight Rain
2:20 AM42.8 °F41.0 °F93 %30.21 in6.2 miNorth (350°)8.1 mphRainLight Rain
2:50 AM42.8 °F42.8 °F100 %30.18 in5.6 miNorth (350°)8.1 mphRainLight Rain
3:20 AM42.8 °F42.8 °F100 %30.18 in5.6 miNorth (10°)6.9 mphRainLight Rain
3:50 AM42.8 °F42.8 °F100 %30.18 in5.0 miNorth (360°)5.8 mphRainLight Rain
4:20 AM42.8 °F42.8 °F100 %30.18 in5.0 miNNE (30°)10.4 mphRainLight Rain
4:50 AM44.6 °F44.6 °F100 %30.18 in5.0 miNE (50°)12.7 mphRainLight Rain
5:20 AM42.8 °F42.8 °F100 %30.18 in5.0 miNE (40°)13.8 mphRainLight Rain
5:50 AM42.8 °F42.8 °F100 %30.18 in5.0 miNE (40°)12.7 mphRainLight Rain
6:20 AM42.8 °F42.8 °F100 %30.18 in5.0 miNE (40°)13.8 mphRainLight Rain
6:50 AM42.8 °F42.8 °F100 %30.18 in5.0 miNE (40°)12.7 mphRainRain
7:20 AM42.8 °F41.0 °F93 %30.18 in5.0 miNE (40°)16.1 mphRainRain
7:50 AM42.8 °F42.8 °F100 %30.18 in5.0 miNE (40°)15.0 mphRainRain
8:20 AM42.8 °F42.8 °F100 %30.18 in5.6 miNE (40°)16.1 mphRainRain
8:50 AM42.8 °F41.0 °F93 %30.18 in6.2 miNE (40°)15.0 mphRainLight Rain
9:20 AM42.8 °F41.0 °F93 %30.18 in6.2 miNE (40°)16.1 mphRainLight Drizzle
9:50 AM42.8 °F41.0 °F93 %30.18 in6.2 miNE (50°)16.1 mphRainLight Drizzle
10:20 AM44.6 °F42.8 °F93 %30.18 in6.2 miNE (40°)17.3 mphOvercast
10:50 AM44.6 °F41.0 °F87 %30.18 in6.2 miNE (50°)18.4 mphOvercast
11:20 AM44.6 °F42.8 °F93 %30.18 in6.2 miNE (50°)17.3 mphMostly Cloudy
11:50 AM44.6 °F41.0 °F87 %30.15 in6.2 miNE (50°)17.3 mphMostly Cloudy
12:20 PM44.6 °F41.0 °F87 %30.15 in6.2 miNE (50°)17.3 mphMostly Cloudy
12:50 PM44.6 °F41.0 °F87 %30.15 in6.2 miNE (50°)18.4 mphMostly Cloudy
1:20 PM44.6 °F41.0 °F87 %30.15 in6.2 miENE (60°)19.6 mphMostly Cloudy
1:50 PM46.4 °F41.0 °F81 %30.15 in6.2 miNE (50°)17.3 mphMostly Cloudy
2:20 PM46.4 °F41.0 °F81 %30.15 in6.2 miNE (50°)16.1 mphRainLight Rain
2:50 PM46.4 °F41.0 °F81 %30.15 in6.2 miENE (60°)16.1 mphOvercast
3:20 PM46.4 °F42.8 °F87 %30.12 in6.2 miENE (60°)15.0 mphOvercast
3:50 PM46.4 °F42.8 °F87 %30.12 in6.2 miNE (50°)15.0 mphOvercast
4:20 PM46.4 °F42.8 °F87 %30.12 in6.2 miNE (50°)15.0 mphOvercast
4:50 PM46.4 °F42.8 °F87 %30.12 in6.2 miNE (40°)11.5 mphOvercast
5:20 PM46.4 °F42.8 °F87 %30.12 in6.2 miNE (40°)10.4 mphOvercast
5:50 PM46.4 °F44.6 °F93 %30.12 in6.2 miNE (40°)11.5 mphOvercast
6:20 PM48.2 °F44.6 °F87 %30.09 in6.2 miNE (50°)10.4 mphOvercast
6:50 PM48.2 °F44.6 °F87 %30.09 in6.2 miNE (50°)10.4 mphOvercast
7:20 PM48.2 °F42.8 °F82 %30.09 in6.2 miNE (40°)12.7 mphOvercast
7:50 PM48.2 °F42.8 °F82 %30.12 in6.2 miNE (50°)12.7 mphOvercast
8:20 PM48.2 °F42.8 °F82 %30.12 in6.2 miNE (50°)15.0 mphOvercast
8:50 PM48.2 °F42.8 °F82 %30.12 in6.2 miNE (50°)12.7 mphOvercast
9:20 PM48.2 °F42.8 °F82 %30.12 in6.2 miNE (50°)11.5 mphOvercast
9:50 PM48.2 °F44.6 °F87 %30.12 in6.2 miNE (50°)12.7 mphOvercast
10:20 PM48.2 °F42.8 °F82 %30.12 in6.2 miNE (50°)15.0 mphOvercast
10:50 PM48.2 °F42.8 °F82 %30.12 in6.2 miNE (50°)13.8 mphOvercast
11:20 PM46.4 °F42.8 °F87 %30.12 in6.2 miNE (50°)13.8 mphOvercast
11:50 PM46.4 °F42.8 °F87 %30.09 in6.2 miNE (50°)13.8 mphOvercast
Hourly data recorded from EDDM, located miles away from Munich, Germany







STORIES FROM OUR PARTNERS